Time,TemperatureF,DewpointF,PressureIn,WindDirection,WindDirectionDegrees,WindSpeedMPH,WindSpeedGustMPH,Humidity,HourlyPrecipIn,Conditions,Clouds,dailyrainin,SoftwareType,DateUTC
2013-05-09 00:06:00,59.5,56.6,30.10,East,93,4.5,9.0,90,0.00,,OVC016,0.06,VWS V14.01,2013-05-09 04:06:00,
2013-05-09 00:11:00,59.5,56.6,30.10,East,85,6.0,9.0,90,0.00,,OVC016,0.06,VWS V14.01,2013-05-09 04:11:00,
2013-05-09 00:16:00,59.5,56.6,30.09,East,91,0.0,9.0,90,0.00,,OVC016,0.06,VWS V14.01,2013-05-09 04:16:00,
2013-05-09 00:21:00,59.5,56.6,30.09,East,82,1.5,9.0,90,0.00,,OVC016,0.06,VWS V14.01,2013-05-09 04:21:00,
2013-05-09 00:26:00,59.5,56.6,30.09,ENE,74,0.0,7.5,90,0.00,,OVC016,0.06,VWS V14.01,2013-05-09 04:26:00,
2013-05-09 00:31:00,59.5,56.6,30.08,East,84,0.0,6.0,90,0.00,,OVC016,0.06,VWS V14.01,2013-05-09 04:31:00,
2013-05-09 00:36:00,59.7,56.8,30.08,East,84,4.5,6.0,90,0.00,,OVC016,0.06,VWS V14.01,2013-05-09 04:36:00,
2013-05-09 00:41:00,59.7,56.8,30.08,East,91,4.5,9.0,90,0.00,,OVC016,0.06,VWS V14.01,2013-05-09 04:41:00,
2013-05-09 00:46:00,59.7,56.8,30.08,East,95,4.5,9.0,90,0.00,,OVC016,0.06,VWS V14.01,2013-05-09 04:46:00,
2013-05-09 00:51:00,59.7,56.8,30.08,ESE,111,6.0,10.5,90,0.00,,OVC016,0.06,VWS V14.01,2013-05-09 04:51:00,
2013-05-09 00:56:00,59.5,56.6,30.08,ESE,110,9.0,10.5,90,0.00,,OVC016,0.06,VWS V14.01,2013-05-09 04:56:00,
2013-05-09 01:01:00,59.5,56.6,30.08,ESE,106,6.0,10.5,90,0.00,,OVC016,0.00,VWS V14.01,2013-05-09 05:01:00,
2013-05-09 01:06:00,59.5,56.6,30.08,ESE,110,6.0,10.5,90,0.00,,OVC015,0.00,VWS V14.01,2013-05-09 05:06:00,
2013-05-09 01:11:00,59.4,56.8,30.08,ESE,110,7.5,15.0,91,0.00,,OVC015,0.00,VWS V14.01,2013-05-09 05:11:00,
2013-05-09 01:16:00,59.2,56.6,30.08,ESE,106,7.5,15.0,91,0.00,,OVC015,0.00,VWS V14.01,2013-05-09 05:16:00,
2013-05-09 01:21:00,59.1,56.5,30.08,ESE,109,9.0,15.0,91,0.00,,OVC015,0.00,VWS V14.01,2013-05-09 05:21:00,
2013-05-09 01:26:00,59.1,56.5,30.08,ESE,104,6.0,15.0,91,0.00,,OVC015,0.00,VWS V14.01,2013-05-09 05:26:00,
2013-05-09 01:31:00,58.9,56.3,30.07,ESE,113,9.0,15.0,91,0.00,,OVC015,0.00,VWS V14.01,2013-05-09 05:31:00,
2013-05-09 01:36:00,58.9,56.6,30.07,East,97,7.5,15.0,92,0.00,,OVC015,0.00,VWS V14.01,2013-05-09 05:36:00,
2013-05-09 01:41:00,58.8,56.5,30.07,ESE,111,3.0,15.0,92,0.00,,OVC015,0.00,VWS V14.01,2013-05-09 05:41:00,
2013-05-09 01:46:00,58.8,56.5,30.06,ESE,102,6.0,15.0,92,0.01,,OVC015,0.01,VWS V14.01,2013-05-09 05:46:00,
2013-05-09 01:51:00,58.6,56.3,30.06,East,99,7.5,15.0,92,0.02,,OVC015,0.02,VWS V14.01,2013-05-09 05:51:00,
2013-05-09 01:56:00,58.5,56.2,30.06,SE,127,4.5,10.5,92,0.02,,OVC015,0.02,VWS V14.01,2013-05-09 05:56:00,
2013-05-09 02:01:00,58.5,56.2,30.06,East,99,3.0,10.5,92,0.02,,OVC015,0.02,VWS V14.01,2013-05-09 06:01:00,
2013-05-09 02:06:00,58.5,56.2,30.06,East,96,3.0,10.5,92,0.03,,OVC004,0.03,VWS V14.01,2013-05-09 06:06:00,
2013-05-09 02:11:00,58.3,56.0,30.06,East,99,7.5,10.5,92,0.03,,OVC004,0.03,VWS V14.01,2013-05-09 06:11:00,
2013-05-09 02:15:00,58.2,55.9,30.05,ESE,118,7.5,9.0,92,0.04,,OVC004,0.04,VWS V14.01,2013-05-09 06:15:00,
2013-05-09 02:21:00,58.0,55.7,30.05,SE,130,7.5,12.0,92,0.06,,OVC004,0.06,VWS V14.01,2013-05-09 06:21:00,
2013-05-09 02:26:00,57.9,55.6,30.05,ESE,110,7.5,12.0,92,0.07,,OVC004,0.07,VWS V14.01,2013-05-09 06:26:00,
2013-05-09 02:31:00,57.9,55.9,30.05,ESE,105,7.5,12.0,93,0.08,,OVC004,0.08,VWS V14.01,2013-05-09 06:31:00,
2013-05-09 02:35:00,57.7,55.7,30.05,ESE,119,9.0,13.5,93,0.08,,OVC004,0.08,VWS V14.01,2013-05-09 06:35:00,
2013-05-09 02:40:00,57.6,55.6,30.05,ESE,108,9.0,15.0,93,0.09,,OVC004,0.09,VWS V14.01,2013-05-09 06:40:00,
2013-05-09 02:45:00,57.3,55.0,30.05,ESE,108,15.0,19.5,92,0.10,,OVC004,0.10,VWS V14.01,2013-05-09 06:45:00,
2013-05-09 02:50:00,57.0,54.7,30.05,ESE,115,10.5,21.0,92,0.09,,OVC004,0.11,VWS V14.01,2013-05-09 06:50:00,
2013-05-09 02:55:00,57.0,54.7,30.05,ESE,122,13.5,21.0,92,0.10,,OVC004,0.12,VWS V14.01,2013-05-09 06:55:00,
2013-05-09 03:00:00,56.8,54.5,30.05,ESE,108,10.5,21.0,92,0.12,,OVC004,0.14,VWS V14.01,2013-05-09 07:00:00,
2013-05-09 03:06:00,56.8,54.8,30.05,East,95,6.0,21.0,93,0.12,,OVC012,0.15,VWS V14.01,2013-05-09 07:06:00,
2013-05-09 03:11:00,56.8,54.8,30.05,SE,135,3.0,21.0,93,0.13,,OVC012,0.16,VWS V14.01,2013-05-09 07:11:00,
2013-05-09 03:16:00,56.6,54.6,30.05,East,97,4.5,16.5,93,0.14,,OVC012,0.18,VWS V14.01,2013-05-09 07:16:00,
2013-05-09 03:21:00,56.6,54.6,30.05,SE,132,3.0,13.5,93,0.14,,OVC012,0.20,VWS V14.01,2013-05-09 07:21:00,
2013-05-09 03:26:00,56.5,54.5,30.05,SE,134,1.5,13.5,93,0.15,,OVC012,0.22,VWS V14.01,2013-05-09 07:26:00,
2013-05-09 03:31:00,56.5,54.5,30.04,ESE,123,1.5,13.5,93,0.14,,OVC012,0.22,VWS V14.01,2013-05-09 07:31:00,
2013-05-09 03:36:00,56.3,54.3,30.04,ESE,122,3.0,9.0,93,0.14,,OVC012,0.22,VWS V14.01,2013-05-09 07:36:00,
2013-05-09 03:40:00,56.3,54.3,30.04,SE,129,6.0,10.5,93,0.13,,OVC012,0.22,VWS V14.01,2013-05-09 07:40:00,
2013-05-09 03:45:00,56.3,54.0,30.04,ESE,115,4.5,10.5,92,0.12,,OVC012,0.22,VWS V14.01,2013-05-09 07:45:00,
2013-05-09 03:50:00,56.2,53.9,30.04,SE,139,4.5,10.5,92,0.11,,OVC012,0.22,VWS V14.01,2013-05-09 07:50:00,
2013-05-09 03:55:00,56.2,53.9,30.04,ESE,111,1.5,10.5,92,0.10,,OVC012,0.22,VWS V14.01,2013-05-09 07:55:00,
2013-05-09 04:00:00,56.2,53.9,30.04,SE,125,6.0,10.5,92,0.08,,OVC012,0.22,VWS V14.01,2013-05-09 08:00:00,
2013-05-09 04:05:00,56.2,53.9,30.04,ESE,108,4.5,10.5,92,0.07,,OVC022,0.22,VWS V14.01,2013-05-09 08:05:00,
2013-05-09 04:10:00,56.2,53.9,30.04,East,93,3.0,10.5,92,0.06,,OVC022,0.22,VWS V14.01,2013-05-09 08:10:00,
2013-05-09 04:15:00,56.2,53.9,30.04,ESE,120,3.0,10.5,92,0.04,,OVC022,0.22,VWS V14.01,2013-05-09 08:15:00,
2013-05-09 04:20:00,56.2,53.9,30.04,SE,128,7.5,10.5,92,0.02,,OVC022,0.22,VWS V14.01,2013-05-09 08:20:00,
2013-05-09 04:25:00,56.2,53.9,30.04,ESE,120,1.5,7.5,92,0.00,,OVC022,0.22,VWS V14.01,2013-05-09 08:25:00,
2013-05-09 04:30:00,56.0,53.7,30.04,SE,131,0.0,10.5,92,0.00,,OVC022,0.22,VWS V14.01,2013-05-09 08:30:00,
2013-05-09 04:35:00,56.0,54.0,30.04,East,100,0.0,10.5,93,0.00,,OVC022,0.22,VWS V14.01,2013-05-09 08:35:00,
2013-05-09 04:40:00,56.0,54.0,30.04,East,86,7.5,10.5,93,0.00,,OVC022,0.22,VWS V14.01,2013-05-09 08:40:00,
2013-05-09 04:45:00,55.9,53.9,30.04,East,101,1.5,10.5,93,0.00,,OVC022,0.22,VWS V14.01,2013-05-09 08:45:00,
2013-05-09 04:50:00,55.7,53.7,30.04,SE,124,4.5,10.5,93,0.00,,OVC022,0.22,VWS V14.01,2013-05-09 08:50:00,
2013-05-09 04:55:00,55.9,53.9,30.04,SE,124,1.5,7.5,93,0.00,,OVC022,0.22,VWS V14.01,2013-05-09 08:55:00,
2013-05-09 05:00:00,55.7,53.7,30.03,East,99,1.5,7.5,93,0.00,,OVC022,0.22,VWS V14.01,2013-05-09 09:00:00,
2013-05-09 05:05:00,55.6,53.6,30.03,East,98,0.0,6.0,93,0.00,,OVC010,0.22,VWS V14.01,2013-05-09 09:05:00,
2013-05-09 05:10:00,55.6,53.6,30.03,East,81,1.5,9.0,93,0.00,,OVC010,0.22,VWS V14.01,2013-05-09 09:10:00,
2013-05-09 05:15:00,55.5,53.5,30.03,ENE,77,0.0,9.0,93,0.00,,OVC010,0.22,VWS V14.01,2013-05-09 09:15:00,
2013-05-09 05:20:00,55.5,53.5,30.03,NE,55,0.0,9.0,93,0.00,,OVC010,0.22,VWS V14.01,2013-05-09 09:20:00,
2013-05-09 05:25:00,55.5,53.5,30.03,NE,54,0.0,9.0,93,0.00,,OVC010,0.22,VWS V14.01,2013-05-09 09:25:00,
2013-05-09 05:30:00,55.5,53.5,30.02,NE,56,0.0,9.0,93,0.00,,OVC010,0.22,VWS V14.01,2013-05-09 09:30:00,
2013-05-09 05:35:00,55.5,53.5,30.02,ENE,74,0.0,4.5,93,0.00,,OVC010,0.22,VWS V14.01,2013-05-09 09:35:00,
2013-05-09 05:40:00,55.5,53.8,30.02,ENE,74,0.0,4.5,94,0.00,,OVC010,0.22,VWS V14.01,2013-05-09 09:40:00,
2013-05-09 05:45:00,55.5,53.5,30.03,ENE,73,0.0,4.5,93,0.00,,OVC010,0.22,VWS V14.01,2013-05-09 09:45:00,
2013-05-09 05:50:00,55.5,53.8,30.03,ENE,73,0.0,4.5,94,0.00,,OVC010,0.22,VWS V14.01,2013-05-09 09:50:00,
2013-05-09 05:55:00,55.5,53.5,30.03,ENE,73,4.5,4.5,93,0.00,,OVC010,0.22,VWS V14.01,2013-05-09 09:55:00,
2013-05-09 06:00:00,55.5,53.8,30.03,ENE,73,0.0,4.5,94,0.00,,OVC010,0.22,VWS V14.01,2013-05-09 10:00:00,
2013-05-09 06:05:00,55.5,53.5,30.03,ENE,72,0.0,4.5,93,0.00,,OVC008,0.22,VWS V14.01,2013-05-09 10:05:00,
2013-05-09 06:10:00,55.5,53.8,30.03,ENE,72,0.0,4.5,94,0.00,,OVC008,0.22,VWS V14.01,2013-05-09 10:10:00,
2013-05-09 06:15:00,55.6,53.9,30.03,ENE,74,0.0,4.5,94,0.00,,OVC008,0.22,VWS V14.01,2013-05-09 10:15:00,
2013-05-09 06:20:00,55.5,53.8,30.03,ENE,73,0.0,3.0,94,0.00,,OVC008,0.22,VWS V14.01,2013-05-09 10:20:00,
2013-05-09 06:25:00,55.5,53.8,30.03,ENE,72,0.0,3.0,94,0.00,,OVC008,0.22,VWS V14.01,2013-05-09 10:25:00,
2013-05-09 06:30:00,55.6,53.9,30.04,ENE,73,0.0,3.0,94,0.00,,OVC008,0.22,VWS V14.01,2013-05-09 10:30:00,
2013-05-09 06:35:00,55.6,53.9,30.04,ENE,74,0.0,3.0,94,0.00,,OVC008,0.22,VWS V14.01,2013-05-09 10:35:00,
2013-05-09 06:40:00,55.6,53.9,30.04,ENE,73,0.0,3.0,94,0.00,,OVC008,0.22,VWS V14.01,2013-05-09 10:40:00,
2013-05-09 06:45:00,55.6,53.9,30.04,ENE,72,0.0,1.5,94,0.00,,OVC008,0.22,VWS V14.01,2013-05-09 10:45:00,
2013-05-09 06:50:00,55.6,53.9,30.04,ENE,73,0.0,0.0,94,0.00,,OVC008,0.22,VWS V14.01,2013-05-09 10:50:00,
2013-05-09 06:55:00,55.6,53.9,30.04,ENE,74,0.0,0.0,94,0.00,,OVC008,0.22,VWS V14.01,2013-05-09 10:55:00,
2013-05-09 07:00:00,55.7,54.0,30.03,ENE,74,0.0,0.0,94,0.00,,OVC008,0.22,VWS V14.01,2013-05-09 11:00:00,
2013-05-09 07:05:00,55.7,54.0,30.03,ENE,74,0.0,1.5,94,0.00,,OVC004,0.22,VWS V14.01,2013-05-09 11:05:00,
2013-05-09 07:10:00,55.9,54.2,30.03,ENE,74,3.0,3.0,94,0.00,,OVC004,0.22,VWS V14.01,2013-05-09 11:10:00,
2013-05-09 07:15:00,55.9,54.2,30.03,ENE,76,3.0,3.0,94,0.00,,OVC004,0.22,VWS V14.01,2013-05-09 11:15:00,
2013-05-09 07:20:00,56.0,54.3,30.03,East,99,1.5,3.0,94,0.00,,OVC004,0.22,VWS V14.01,2013-05-09 11:20:00,
2013-05-09 07:25:00,56.0,54.3,30.03,ESE,120,1.5,6.0,94,0.00,,OVC004,0.22,VWS V14.01,2013-05-09 11:25:00,
2013-05-09 07:30:00,56.2,54.5,30.03,SE,126,3.0,6.0,94,0.00,,OVC004,0.22,VWS V14.01,2013-05-09 11:30:00,
2013-05-09 07:35:00,56.2,54.5,30.03,SSE,149,7.5,7.5,94,0.00,,OVC004,0.22,VWS V14.01,2013-05-09 11:35:00,
2013-05-09 07:40:00,56.2,54.5,30.03,SE,143,7.5,7.5,94,0.00,,OVC004,0.22,VWS V14.01,2013-05-09 11:40:00,
2013-05-09 07:45:00,56.2,54.5,30.04,SE,137,9.0,9.0,94,0.00,,OVC004,0.22,VWS V14.01,2013-05-09 11:45:00,
2013-05-09 07:50:00,56.2,54.5,30.04,SE,144,6.0,9.0,94,0.00,,OVC004,0.22,VWS V14.01,2013-05-09 11:50:00,
2013-05-09 07:55:00,56.0,54.3,30.04,SE,135,0.0,9.0,94,0.00,,OVC004,0.22,VWS V14.01,2013-05-09 11:55:00,
2013-05-09 08:00:00,56.0,54.3,30.03,SE,133,1.5,9.0,94,0.00,,OVC004,0.22,VWS V14.01,2013-05-09 12:00:00,
2013-05-09 08:05:00,56.0,54.3,30.03,SE,132,1.5,9.0,94,0.00,,OVC004,0.22,VWS V14.01,2013-05-09 12:05:00,
2013-05-09 08:10:00,56.2,54.5,30.03,SSE,151,9.0,9.0,94,0.00,,OVC004,0.22,VWS V14.01,2013-05-09 12:10:00,
2013-05-09 08:15:00,56.3,54.6,30.04,SSE,161,7.5,9.0,94,0.00,,OVC004,0.22,VWS V14.01,2013-05-09 12:15:00,
2013-05-09 08:20:00,56.2,54.5,30.04,SSE,151,9.0,10.5,94,0.00,,OVC004,0.22,VWS V14.01,2013-05-09 12:20:00,
2013-05-09 08:25:00,56.2,54.5,30.04,SSE,154,9.0,10.5,94,0.00,,OVC004,0.22,VWS V14.01,2013-05-09 12:25:00,
2013-05-09 08:30:00,56.0,54.3,30.04,SSE,160,7.5,13.5,94,0.00,,OVC004,0.22,VWS V14.01,2013-05-09 12:30:00,
2013-05-09 08:35:00,56.0,54.3,30.04,SSE,156,9.0,13.5,94,0.00,,OVC004,0.22,VWS V14.01,2013-05-09 12:35:00,
2013-05-09 08:40:00,56.0,54.3,30.04,South,169,9.0,13.5,94,0.00,,OVC004,0.22,VWS V14.01,2013-05-09 12:40:00,
2013-05-09 08:45:00,55.9,54.2,30.04,SSE,164,12.0,13.5,94,0.00,,OVC004,0.22,VWS V14.01,2013-05-09 12:45:00,
2013-05-09 08:50:00,55.9,54.2,30.04,SSE,157,9.0,13.5,94,0.00,,OVC004,0.22,VWS V14.01,2013-05-09 12:50:00,
2013-05-09 08:55:00,56.0,54.3,30.04,SE,145,7.5,13.5,94,0.00,,OVC004,0.22,VWS V14.01,2013-05-09 12:55:00,
2013-05-09 09:00:00,56.0,54.3,30.03,SE,138,4.5,13.5,94,0.00,,OVC004,0.22,VWS V14.01,2013-05-09 13:00:00,
2013-05-09 09:05:00,56.3,54.6,30.03,SE,138,1.5,13.5,94,0.00,,OVC004,0.22,VWS V14.01,2013-05-09 13:05:00,
2013-05-09 09:10:00,56.5,54.8,30.03,SE,139,3.0,10.5,94,0.00,,OVC004,0.22,VWS V14.01,2013-05-09 13:10:00,
2013-05-09 09:15:00,57.0,55.3,30.03,SE,139,3.0,9.0,94,0.00,,OVC004,0.22,VWS V14.01,2013-05-09 13:15:00,
2013-05-09 09:20:00,57.3,55.6,30.03,South,171,7.5,7.5,94,0.00,,OVC004,0.22,VWS V14.01,2013-05-09 13:20:00,
2013-05-09 09:25:00,57.3,55.3,30.03,South,189,6.0,7.5,93,0.00,,OVC004,0.22,VWS V14.01,2013-05-09 13:25:00,
2013-05-09 09:30:00,57.3,55.3,30.02,South,189,4.5,7.5,93,0.00,,OVC004,0.22,VWS V14.01,2013-05-09 13:30:00,
2013-05-09 09:35:00,57.4,55.1,30.02,South,189,6.0,7.5,92,0.00,,OVC004,0.22,VWS V14.01,2013-05-09 13:35:00,
2013-05-09 09:40:00,57.6,55.3,30.02,SSW,192,6.0,7.5,92,0.00,,OVC004,0.22,VWS V14.01,2013-05-09 13:40:00,
2013-05-09 09:45:00,57.6,55.3,30.02,South,189,6.0,7.5,92,0.00,,OVC004,0.22,VWS V14.01,2013-05-09 13:45:00,
2013-05-09 09:50:00,57.7,55.1,30.02,South,190,6.0,10.5,91,0.00,,OVC004,0.22,VWS V14.01,2013-05-09 13:50:00,
2013-05-09 09:55:00,57.7,55.1,30.02,South,191,9.0,10.5,91,0.00,,OVC004,0.22,VWS V14.01,2013-05-09 13:55:00,
2013-05-09 10:00:00,57.9,55.3,30.02,SSW,193,10.5,13.5,91,0.00,,OVC004,0.22,VWS V14.01,2013-05-09 14:00:00,
2013-05-09 10:05:00,58.2,55.6,30.02,SSW,192,10.5,13.5,91,0.00,,OVC004,0.22,VWS V14.01,2013-05-09 14:05:00,
2013-05-09 10:10:00,58.3,55.4,30.02,South,189,9.0,13.5,90,0.00,,OVC004,0.22,VWS V14.01,2013-05-09 14:10:00,
2013-05-09 10:15:00,58.5,55.3,30.01,South,189,7.5,13.5,89,0.00,,OVC004,0.22,VWS V14.01,2013-05-09 14:15:00,
2013-05-09 10:20:00,58.5,55.3,30.01,South,171,10.5,13.5,89,0.00,,OVC004,0.22,VWS V14.01,2013-05-09 14:20:00,
2013-05-09 10:25:00,58.5,55.0,30.01,SSE,153,13.5,15.0,88,0.00,,OVC004,0.22,VWS V14.01,2013-05-09 14:25:00,
2013-05-09 10:30:00,58.6,55.4,30.01,SE,146,13.5,16.5,89,0.00,,OVC004,0.22,VWS V14.01,2013-05-09 14:30:00,
2013-05-09 10:35:00,58.8,55.6,30.01,SSE,156,15.0,16.5,89,0.00,,OVC004,0.22,VWS V14.01,2013-05-09 14:35:00,
2013-05-09 10:40:00,58.9,55.4,30.01,SSE,168,12.0,16.5,88,0.00,,OVC004,0.22,VWS V14.01,2013-05-09 14:40:00,
2013-05-09 10:45:00,58.9,55.0,30.01,SSE,154,9.0,16.5,87,0.00,,OVC004,0.22,VWS V14.01,2013-05-09 14:45:00,
2013-05-09 10:50:00,58.9,55.4,30.01,SSE,149,13.5,16.5,88,0.00,,OVC004,0.22,VWS V14.01,2013-05-09 14:50:00,
2013-05-09 10:55:00,58.8,55.3,30.01,SE,143,15.0,16.5,88,0.00,,OVC004,0.22,VWS V14.01,2013-05-09 14:55:00,
2013-05-09 11:00:00,58.6,55.4,30.02,SE,141,18.0,18.0,89,0.00,,OVC004,0.22,VWS V14.01,2013-05-09 15:00:00,
2013-05-09 11:05:00,58.3,55.1,30.02,SSE,151,18.0,18.0,89,0.00,,OVC011,0.22,VWS V14.01,2013-05-09 15:05:00,
2013-05-09 11:10:00,58.2,55.0,30.02,SSE,159,18.0,21.0,89,0.00,,OVC011,0.22,VWS V14.01,2013-05-09 15:10:00,
2013-05-09 11:15:00,58.0,54.8,30.02,SSE,149,18.0,21.0,89,0.00,,OVC011,0.22,VWS V14.01,2013-05-09 15:15:00,
2013-05-09 11:20:00,58.2,55.0,30.02,SSE,149,13.5,21.0,89,0.00,,OVC011,0.22,VWS V14.01,2013-05-09 15:20:00,
2013-05-09 11:25:00,58.5,55.3,30.02,SE,142,13.5,21.0,89,0.00,,OVC011,0.22,VWS V14.01,2013-05-09 15:25:00,
2013-05-09 11:30:00,58.3,54.8,30.01,SSE,156,15.0,21.0,88,0.00,,OVC011,0.22,VWS V14.01,2013-05-09 15:30:00,
2013-05-09 11:35:00,58.5,55.3,30.01,SE,131,12.0,19.5,89,0.00,,OVC011,0.22,VWS V14.01,2013-05-09 15:35:00,
2013-05-09 11:40:00,58.9,56.0,30.01,SE,139,7.5,18.0,90,0.00,,OVC011,0.22,VWS V14.01,2013-05-09 15:40:00,
2013-05-09 11:45:00,59.5,56.0,30.00,ESE,120,3.0,18.0,88,0.00,,OVC011,0.22,VWS V14.01,2013-05-09 15:45:00,
2013-05-09 11:50:00,59.9,56.3,30.00,SE,139,4.5,16.5,88,0.00,,OVC011,0.22,VWS V14.01,2013-05-09 15:50:00,
2013-05-09 11:55:00,60.2,56.6,30.00,SE,133,1.5,13.5,88,0.00,,OVC011,0.22,VWS V14.01,2013-05-09 15:55:00,
2013-05-09 12:00:00,60.6,56.4,30.00,SE,126,1.5,13.5,86,0.00,,OVC011,0.22,VWS V14.01,2013-05-09 16:00:00,
2013-05-09 12:05:00,61.1,56.9,30.00,South,189,7.5,7.5,86,0.00,,OVC030,0.22,VWS V14.01,2013-05-09 16:05:00,
2013-05-09 12:10:00,61.3,56.4,30.00,South,189,7.5,10.5,84,0.00,,OVC030,0.22,VWS V14.01,2013-05-09 16:10:00,
2013-05-09 12:15:00,61.1,56.2,30.00,South,189,4.5,10.5,84,0.00,,OVC030,0.22,VWS V14.01,2013-05-09 16:15:00,
2013-05-09 12:20:00,61.4,56.9,30.00,South,189,7.5,10.5,85,0.00,,OVC030,0.22,VWS V14.01,2013-05-09 16:20:00,
2013-05-09 12:25:00,61.3,56.4,30.00,South,180,7.5,10.5,84,0.00,,OVC030,0.22,VWS V14.01,2013-05-09 16:25:00,
2013-05-09 12:30:00,61.3,56.4,29.99,South,171,3.0,10.5,84,0.00,,OVC030,0.22,VWS V14.01,2013-05-09 16:30:00,
2013-05-09 12:35:00,61.6,56.7,29.99,South,180,7.5,10.5,84,0.00,,OVC030,0.22,VWS V14.01,2013-05-09 16:35:00,
2013-05-09 12:40:00,62.1,56.9,29.99,South,190,6.0,10.5,83,0.00,,OVC030,0.22,VWS V14.01,2013-05-09 16:40:00,
2013-05-09 12:45:00,62.4,56.5,29.99,South,171,4.5,9.0,81,0.00,,OVC030,0.22,VWS V14.01,2013-05-09 16:45:00,
2013-05-09 12:50:00,63.0,57.8,29.99,South,171,6.0,9.0,83,0.00,,OVC030,0.22,VWS V14.01,2013-05-09 16:50:00,
2013-05-09 12:55:00,63.5,57.2,29.99,South,189,6.0,9.0,80,0.00,,OVC030,0.22,VWS V14.01,2013-05-09 16:55:00,
2013-05-09 13:00:00,63.5,57.6,29.99,South,189,6.0,7.5,81,0.00,,OVC030,0.22,VWS V14.01,2013-05-09 17:00:00,
2013-05-09 13:05:00,63.7,57.4,29.99,SSE,168,6.0,7.5,80,0.00,,BKN038,0.22,VWS V14.01,2013-05-09 17:05:00,
2013-05-09 13:10:00,63.3,56.7,29.99,SSE,159,6.0,7.5,79,0.00,,BKN038,0.22,VWS V14.01,2013-05-09 17:10:00,
2013-05-09 13:15:00,63.0,56.7,29.98,SSE,159,6.0,7.5,80,0.00,,BKN038,0.22,VWS V14.01,2013-05-09 17:15:00,
2013-05-09 13:20:00,62.9,57.0,29.98,SSE,159,4.5,7.5,81,0.00,,BKN038,0.22,VWS V14.01,2013-05-09 17:20:00,
2013-05-09 13:25:00,62.9,57.3,29.98,SSE,159,4.5,7.5,82,0.00,,BKN038,0.22,VWS V14.01,2013-05-09 17:25:00,
2013-05-09 13:30:00,62.9,57.7,29.98,SSE,159,4.5,7.5,83,0.00,,BKN038,0.22,VWS V14.01,2013-05-09 17:30:00,
2013-05-09 13:35:00,62.5,56.9,29.98,SSE,159,3.0,6.0,82,0.00,,BKN038,0.22,VWS V14.01,2013-05-09 17:35:00,
2013-05-09 13:40:00,62.2,57.0,29.98,SSE,160,4.5,6.0,83,0.00,,BKN038,0.22,VWS V14.01,2013-05-09 17:40:00,
2013-05-09 13:45:00,62.1,56.9,29.97,SSE,160,6.0,6.0,83,0.00,,BKN038,0.22,VWS V14.01,2013-05-09 17:45:00,
2013-05-09 13:50:00,61.9,56.7,29.97,South,190,7.5,9.0,83,0.00,,BKN038,0.22,VWS V14.01,2013-05-09 17:50:00,
2013-05-09 13:55:00,61.7,56.5,29.97,SSE,167,12.0,12.0,83,0.00,,BKN038,0.22,VWS V14.01,2013-05-09 17:55:00,
2013-05-09 14:00:00,61.6,56.4,29.97,SSE,155,7.5,13.5,83,0.00,,BKN038,0.22,VWS V14.01,2013-05-09 18:00:00,
2013-05-09 14:05:00,61.3,56.1,29.97,SSE,153,13.5,13.5,83,0.00,,BKN090,0.22,VWS V14.01,2013-05-09 18:05:00,
2013-05-09 14:10:00,61.1,55.9,29.97,SSE,166,10.5,15.0,83,0.00,,BKN090,0.22,VWS V14.01,2013-05-09 18:10:00,
2013-05-09 14:15:00,61.1,55.9,29.96,SSE,156,10.5,15.0,83,0.00,,BKN090,0.22,VWS V14.01,2013-05-09 18:15:00,
2013-05-09 14:20:00,61.0,55.8,29.96,SSE,149,9.0,15.0,83,0.00,,BKN090,0.22,VWS V14.01,2013-05-09 18:20:00,
2013-05-09 14:25:00,61.1,55.9,29.96,SE,143,7.5,15.0,83,0.00,,BKN090,0.22,VWS V14.01,2013-05-09 18:25:00,
2013-05-09 14:30:00,61.3,56.1,29.96,SSE,147,9.0,13.5,83,0.00,,BKN090,0.22,VWS V14.01,2013-05-09 18:30:00,
2013-05-09 14:35:00,61.1,55.9,29.96,SE,139,4.5,12.0,83,0.00,,BKN090,0.22,VWS V14.01,2013-05-09 18:35:00,
2013-05-09 14:40:00,61.3,56.4,29.96,SE,135,6.0,12.0,84,0.00,,BKN090,0.22,VWS V14.01,2013-05-09 18:40:00,
2013-05-09 14:45:00,61.1,56.6,29.96,SE,141,7.5,12.0,85,0.00,,BKN090,0.22,VWS V14.01,2013-05-09 18:45:00,
2013-05-09 14:50:00,61.0,56.1,29.96,SE,135,4.5,12.0,84,0.00,,BKN090,0.22,VWS V14.01,2013-05-09 18:50:00,
2013-05-09 14:55:00,60.8,55.9,29.96,SE,133,4.5,12.0,84,0.00,,BKN090,0.22,VWS V14.01,2013-05-09 18:55:00,
2013-05-09 15:00:00,60.6,55.8,29.95,SE,129,6.0,10.5,84,0.00,,BKN090,0.22,VWS V14.01,2013-05-09 19:00:00,
2013-05-09 15:05:00,60.5,55.7,29.95,SE,129,6.0,10.5,84,0.00,,OVC075,0.22,VWS V14.01,2013-05-09 19:05:00,
2013-05-09 15:10:00,60.6,55.4,29.95,SE,131,7.5,10.5,83,0.00,,OVC075,0.22,VWS V14.01,2013-05-09 19:10:00,
2013-05-09 15:15:00,60.8,55.9,29.95,SE,131,7.5,10.5,84,0.00,,OVC075,0.22,VWS V14.01,2013-05-09 19:15:00,
2013-05-09 15:20:00,60.8,55.6,29.95,SE,125,9.0,10.5,83,0.00,,OVC075,0.22,VWS V14.01,2013-05-09 19:20:00,
2013-05-09 15:25:00,60.6,55.1,29.95,SE,131,7.5,13.5,82,0.00,,OVC075,0.22,VWS V14.01,2013-05-09 19:25:00,
2013-05-09 15:30:00,60.5,55.3,29.94,ESE,122,3.0,13.5,83,0.00,,OVC075,0.22,VWS V14.01,2013-05-09 19:30:00,
2013-05-09 15:35:00,60.3,55.1,29.94,SE,128,1.5,13.5,83,0.00,,OVC075,0.22,VWS V14.01,2013-05-09 19:35:00,
2013-05-09 15:40:00,60.3,55.1,29.94,SE,134,6.0,13.5,83,0.00,,OVC075,0.22,VWS V14.01,2013-05-09 19:40:00,
2013-05-09 15:45:00,60.3,55.1,29.94,SE,134,3.0,13.5,83,0.00,,OVC075,0.22,VWS V14.01,2013-05-09 19:45:00,
2013-05-09 15:50:00,60.3,55.5,29.94,SE,135,6.0,9.0,84,0.01,,OVC075,0.23,VWS V14.01,2013-05-09 19:50:00,
2013-05-09 15:55:00,60.5,55.7,29.94,SE,135,6.0,7.5,84,0.01,,OVC075,0.23,VWS V14.01,2013-05-09 19:55:00,
2013-05-09 16:00:00,60.3,55.5,29.94,SE,136,4.5,7.5,84,0.01,,OVC075,0.23,VWS V14.01,2013-05-09 20:00:00,
2013-05-09 16:05:00,60.2,55.3,29.94,SE,135,0.0,7.5,84,0.01,,BKN075,0.23,VWS V14.01,2013-05-09 20:05:00,
2013-05-09 16:10:00,60.0,55.2,29.94,SE,127,6.0,7.5,84,0.01,,BKN075,0.23,VWS V14.01,2013-05-09 20:10:00,
2013-05-09 16:15:00,60.2,55.3,29.93,SE,130,4.5,9.0,84,0.01,,BKN075,0.23,VWS V14.01,2013-05-09 20:15:00,
2013-05-09 16:20:00,60.2,55.0,29.93,East,86,1.5,9.0,83,0.01,,BKN075,0.23,VWS V14.01,2013-05-09 20:20:00,
2013-05-09 16:25:00,60.3,56.1,29.93,East,92,1.5,9.0,86,0.01,,BKN075,0.23,VWS V14.01,2013-05-09 20:25:00,
2013-05-09 16:30:00,60.3,56.1,29.93,SSW,194,13.5,13.5,86,0.01,,BKN075,0.23,VWS V14.01,2013-05-09 20:30:00,
2013-05-09 16:35:00,60.2,56.0,29.93,South,171,0.0,13.5,86,0.01,,BKN075,0.23,VWS V14.01,2013-05-09 20:35:00,
2013-05-09 16:40:00,60.0,56.1,29.93,SSE,157,3.0,13.5,87,0.01,,BKN075,0.23,VWS V14.01,2013-05-09 20:40:00,
2013-05-09 16:45:00,59.9,56.0,29.93,SE,140,7.5,13.5,87,0.01,,BKN075,0.23,VWS V14.01,2013-05-09 20:45:00,
2013-05-09 16:50:00,59.9,56.0,29.93,SE,135,0.0,13.5,87,0.00,,BKN075,0.23,VWS V14.01,2013-05-09 20:50:00,
2013-05-09 16:55:00,59.9,55.7,29.93,SE,135,6.0,10.5,86,0.00,,BKN075,0.23,VWS V14.01,2013-05-09 20:55:00,
2013-05-09 17:00:00,60.0,56.1,29.93,SSE,162,6.0,10.5,87,0.00,,BKN075,0.23,VWS V14.01,2013-05-09 21:00:00,
2013-05-09 17:05:00,60.0,56.1,29.93,SSE,148,6.0,10.5,87,0.00,,BKN018,0.23,VWS V14.01,2013-05-09 21:05:00,
2013-05-09 17:10:00,59.9,56.0,29.93,SSE,148,0.0,9.0,87,0.00,,BKN018,0.23,VWS V14.01,2013-05-09 21:10:00,
2013-05-09 17:15:00,59.7,55.5,29.93,SE,135,0.0,9.0,86,0.00,,BKN018,0.23,VWS V14.01,2013-05-09 21:15:00,
2013-05-09 17:20:00,59.9,55.7,29.93,SE,135,0.0,9.0,86,0.00,,BKN018,0.23,VWS V14.01,2013-05-09 21:20:00,
2013-05-09 17:25:00,60.2,56.3,29.93,SE,135,0.0,9.0,87,0.00,,BKN018,0.23,VWS V14.01,2013-05-09 21:25:00,
2013-05-09 17:30:00,60.3,56.4,29.93,SE,136,0.0,4.5,87,0.00,,BKN018,0.23,VWS V14.01,2013-05-09 21:30:00,
2013-05-09 17:35:00,60.3,56.4,29.93,SE,135,0.0,4.5,87,0.00,,BKN018,0.23,VWS V14.01,2013-05-09 21:35:00,
2013-05-09 17:40:00,60.3,56.4,29.93,SE,135,3.0,4.5,87,0.00,,BKN018,0.23,VWS V14.01,2013-05-09 21:40:00,
2013-05-09 17:45:00,60.3,56.4,29.92,SE,136,1.5,4.5,87,0.00,,BKN018,0.23,VWS V14.01,2013-05-09 21:45:00,
2013-05-09 17:50:00,60.2,56.3,29.92,SE,136,0.0,4.5,87,0.00,,BKN018,0.23,VWS V14.01,2013-05-09 21:50:00,
2013-05-09 17:55:00,60.2,56.6,29.92,SE,136,0.0,3.0,88,0.00,,BKN018,0.23,VWS V14.01,2013-05-09 21:55:00,
2013-05-09 18:00:00,60.0,56.4,29.93,SE,135,0.0,3.0,88,0.00,,BKN018,0.23,VWS V14.01,2013-05-09 22:00:00,
2013-05-09 18:05:00,60.0,56.4,29.93,SE,136,0.0,3.0,88,0.00,,OVC011,0.23,VWS V14.01,2013-05-09 22:05:00,
2013-05-09 18:10:00,59.9,56.3,29.93,SE,135,0.0,3.0,88,0.00,,OVC011,0.23,VWS V14.01,2013-05-09 22:10:00,
2013-05-09 18:15:00,60.0,56.4,29.93,SE,135,0.0,3.0,88,0.00,,OVC011,0.23,VWS V14.01,2013-05-09 22:15:00,
2013-05-09 18:20:00,60.0,56.1,29.93,SE,136,0.0,3.0,87,0.00,,OVC011,0.23,VWS V14.01,2013-05-09 22:20:00,
2013-05-09 18:25:00,60.2,56.3,29.93,SE,136,0.0,1.5,87,0.00,,OVC011,0.23,VWS V14.01,2013-05-09 22:25:00,
2013-05-09 18:30:00,60.2,56.3,29.93,SE,135,0.0,1.5,87,0.00,,OVC011,0.23,VWS V14.01,2013-05-09 22:30:00,
2013-05-09 18:35:00,60.2,56.3,29.93,SE,135,1.5,1.5,87,0.00,,OVC011,0.23,VWS V14.01,2013-05-09 22:35:00,
2013-05-09 18:40:00,60.2,56.3,29.93,SE,136,1.5,1.5,87,0.00,,OVC011,0.23,VWS V14.01,2013-05-09 22:40:00,
2013-05-09 18:45:00,60.0,56.1,29.93,SE,136,0.0,1.5,87,0.00,,OVC011,0.23,VWS V14.01,2013-05-09 22:45:00,
2013-05-09 18:50:00,59.9,56.3,29.93,SE,136,0.0,1.5,88,0.00,,OVC011,0.23,VWS V14.01,2013-05-09 22:50:00,
2013-05-09 18:55:00,59.5,56.0,29.93,SE,136,0.0,1.5,88,0.00,,OVC011,0.23,VWS V14.01,2013-05-09 22:55:00,
2013-05-09 19:00:00,59.5,56.3,29.93,SE,136,4.5,6.0,89,0.00,,OVC011,0.23,VWS V14.01,2013-05-09 23:00:00,
2013-05-09 19:05:00,59.4,56.2,29.93,SE,137,4.5,7.5,89,0.00,,SCT020,0.23,VWS V14.01,2013-05-09 23:05:00,
2013-05-09 19:10:00,59.2,56.0,29.93,SE,137,4.5,7.5,89,0.00,,SCT020,0.23,VWS V14.01,2013-05-09 23:10:00,
2013-05-09 19:15:00,59.2,56.3,29.93,SE,137,3.0,7.5,90,0.00,,SCT020,0.23,VWS V14.01,2013-05-09 23:15:00,
2013-05-09 19:20:00,59.2,56.3,29.93,SE,136,0.0,7.5,90,0.00,,SCT020,0.23,VWS V14.01,2013-05-09 23:20:00,
2013-05-09 19:25:00,59.1,56.2,29.93,SE,137,1.5,7.5,90,0.00,,SCT020,0.23,VWS V14.01,2013-05-09 23:25:00,
2013-05-09 19:30:00,58.9,56.0,29.94,SE,145,4.5,7.5,90,0.00,,SCT020,0.23,VWS V14.01,2013-05-09 23:30:00,
2013-05-09 19:35:00,58.8,55.9,29.94,SE,137,3.0,7.5,90,0.00,,SCT020,0.23,VWS V14.01,2013-05-09 23:35:00,
2013-05-09 19:40:00,58.6,56.0,29.94,SE,137,1.5,7.5,91,0.00,,SCT020,0.23,VWS V14.01,2013-05-09 23:40:00,
2013-05-09 19:45:00,58.6,56.0,29.94,SE,137,1.5,7.5,91,0.00,,SCT020,0.23,VWS V14.01,2013-05-09 23:45:00,
2013-05-09 19:50:00,58.6,56.0,29.94,SE,137,3.0,7.5,91,0.00,,SCT020,0.23,VWS V14.01,2013-05-09 23:50:00,
2013-05-09 19:55:00,58.6,56.0,29.94,SSE,150,4.5,6.0,91,0.00,,SCT020,0.23,VWS V14.01,2013-05-09 23:55:00,
2013-05-09 20:00:00,58.5,55.9,29.95,SSW,209,6.0,7.5,91,0.00,,SCT020,0.23,VWS V14.01,2013-05-10 00:00:00,
2013-05-09 20:05:00,58.2,55.6,29.95,SSW,198,0.0,7.5,91,0.00,,BKN021,0.23,VWS V14.01,2013-05-10 00:05:00,
2013-05-09 20:10:00,58.0,55.4,29.95,South,171,4.5,7.5,91,0.00,,BKN021,0.23,VWS V14.01,2013-05-10 00:10:00,
2013-05-09 20:15:00,58.2,55.9,29.94,South,170,0.0,7.5,92,0.00,,BKN021,0.23,VWS V14.01,2013-05-10 00:15:00,
2013-05-09 20:20:00,58.2,55.9,29.94,SSE,159,0.0,7.5,92,0.00,,BKN021,0.23,VWS V14.01,2013-05-10 00:20:00,
2013-05-09 20:25:00,58.0,55.7,29.94,SSE,159,1.5,4.5,92,0.00,,BKN021,0.23,VWS V14.01,2013-05-10 00:25:00,
2013-05-09 20:30:00,57.9,55.6,29.95,SSE,159,0.0,4.5,92,0.00,,BKN021,0.23,VWS V14.01,2013-05-10 00:30:00,
2013-05-09 20:35:00,57.9,55.6,29.95,SSE,159,0.0,4.5,92,0.00,,BKN021,0.23,VWS V14.01,2013-05-10 00:35:00,
2013-05-09 20:40:00,57.7,55.4,29.95,SSE,159,0.0,4.5,92,0.00,,BKN021,0.23,VWS V14.01,2013-05-10 00:40:00,
2013-05-09 20:45:00,57.7,55.4,29.95,SSE,159,0.0,1.5,92,0.00,,BKN021,0.23,VWS V14.01,2013-05-10 00:45:00,
2013-05-09 20:50:00,57.6,55.3,29.95,SSE,159,0.0,1.5,92,0.00,,BKN021,0.23,VWS V14.01,2013-05-10 00:50:00,
2013-05-09 20:55:00,57.3,55.0,29.95,SSE,159,0.0,1.5,92,0.00,,BKN021,0.23,VWS V14.01,2013-05-10 00:55:00,
2013-05-09 21:00:00,57.0,54.7,29.95,SSE,159,0.0,1.5,92,0.00,,BKN021,0.23,VWS V14.01,2013-05-10 01:00:00,
2013-05-09 21:05:00,56.6,54.3,29.95,SSE,159,0.0,1.5,92,0.00,,CLR,0.23,VWS V14.01,2013-05-10 01:05:00,
2013-05-09 21:10:00,56.5,54.2,29.95,SSE,159,0.0,1.5,92,0.00,,CLR,0.23,VWS V14.01,2013-05-10 01:10:00,
2013-05-09 21:15:00,56.5,54.2,29.96,SSE,158,0.0,0.0,92,0.00,,CLR,0.23,VWS V14.01,2013-05-10 01:15:00,
2013-05-09 21:20:00,56.3,54.0,29.96,SSE,158,0.0,0.0,92,0.00,,CLR,0.23,VWS V14.01,2013-05-10 01:20:00,
2013-05-09 21:25:00,56.3,54.0,29.96,SSE,158,0.0,0.0,92,0.00,,CLR,0.23,VWS V14.01,2013-05-10 01:25:00,
2013-05-09 21:30:00,56.2,53.9,29.95,SSE,158,0.0,0.0,92,0.00,,CLR,0.23,VWS V14.01,2013-05-10 01:30:00,
2013-05-09 21:35:00,56.0,53.7,29.95,SSE,158,0.0,0.0,92,0.00,,CLR,0.23,VWS V14.01,2013-05-10 01:35:00,
2013-05-09 21:40:00,56.0,53.7,29.95,SSE,159,0.0,0.0,92,0.00,,CLR,0.23,VWS V14.01,2013-05-10 01:40:00,
2013-05-09 21:45:00,56.0,53.7,29.95,SSE,158,0.0,0.0,92,0.00,,CLR,0.23,VWS V14.01,2013-05-10 01:45:00,
2013-05-09 21:50:00,56.0,54.0,29.95,SSE,159,0.0,0.0,93,0.00,,CLR,0.23,VWS V14.01,2013-05-10 01:50:00,
2013-05-09 21:55:00,56.0,54.0,29.95,SSE,158,0.0,0.0,93,0.00,,CLR,0.23,VWS V14.01,2013-05-10 01:55:00,
2013-05-09 22:00:00,56.0,54.0,29.95,SSE,159,0.0,0.0,93,0.00,,CLR,0.23,VWS V14.01,2013-05-10 02:00:00,
2013-05-09 22:05:00,56.2,54.2,29.95,SSE,158,0.0,0.0,93,0.00,,BKN019,0.23,VWS V14.01,2013-05-10 02:05:00,
2013-05-09 22:10:00,56.2,54.2,29.95,SSE,159,0.0,0.0,93,0.00,,BKN019,0.23,VWS V14.01,2013-05-10 02:10:00,
2013-05-09 22:15:00,56.3,54.3,29.95,SSE,158,0.0,0.0,93,0.00,,BKN019,0.23,VWS V14.01,2013-05-10 02:15:00,
2013-05-09 22:20:00,56.3,54.3,29.95,SSE,158,0.0,0.0,93,0.00,,BKN019,0.23,VWS V14.01,2013-05-10 02:20:00,
2013-05-09 22:25:00,56.3,54.3,29.95,SSE,159,0.0,0.0,93,0.00,,BKN019,0.23,VWS V14.01,2013-05-10 02:25:00,
2013-05-09 22:30:00,56.5,54.5,29.94,SSE,158,0.0,0.0,93,0.00,,BKN019,0.23,VWS V14.01,2013-05-10 02:30:00,
2013-05-09 22:35:00,56.5,54.5,29.94,SSE,159,0.0,0.0,93,0.00,,BKN019,0.23,VWS V14.01,2013-05-10 02:35:00,
2013-05-09 22:40:00,56.5,54.5,29.94,SSE,159,0.0,0.0,93,0.00,,BKN019,0.23,VWS V14.01,2013-05-10 02:40:00,
2013-05-09 22:45:00,56.5,54.5,29.94,SSE,159,0.0,0.0,93,0.00,,BKN019,0.23,VWS V14.01,2013-05-10 02:45:00,
2013-05-09 22:50:00,56.5,54.5,29.94,SSE,158,0.0,0.0,93,0.00,,BKN019,0.23,VWS V14.01,2013-05-10 02:50:00,
2013-05-09 22:55:00,56.5,54.8,29.94,SSE,158,0.0,0.0,94,0.00,,BKN019,0.23,VWS V14.01,2013-05-10 02:55:00,
2013-05-09 23:00:00,56.5,54.8,29.93,SSE,159,0.0,0.0,94,0.00,,BKN019,0.23,VWS V14.01,2013-05-10 03:00:00,
2013-05-09 23:01:00,56.5,54.8,29.93,SSE,151,9.0,9.0,94,0.00,,BKN120,0.23,VWS V14.01,2013-05-10 03:01:00,
2013-05-09 23:02:00,56.5,54.8,29.93,SSE,151,7.5,9.0,94,0.00,,OVC018,0.23,VWS V14.01,2013-05-10 03:02:00,
2013-05-09 23:03:00,56.5,54.8,29.93,SSE,151,6.0,9.0,94,0.00,,OVC018,0.23,VWS V14.01,2013-05-10 03:03:00,
2013-05-09 23:04:00,56.5,54.8,29.93,SSE,151,6.0,9.0,94,0.00,,OVC018,0.23,VWS V14.01,2013-05-10 03:04:00,
2013-05-09 23:05:00,56.5,54.5,29.93,SSE,158,0.0,0.0,93,0.00,,BKN120,0.23,VWS V14.01,2013-05-10 03:05:00,
2013-05-09 23:06:00,56.3,54.6,29.93,SSE,151,3.0,9.0,94,0.00,,OVC018,0.23,VWS V14.01,2013-05-10 03:06:00,
2013-05-09 23:07:00,56.3,54.6,29.93,SSE,151,0.0,9.0,94,0.00,,OVC018,0.23,VWS V14.01,2013-05-10 03:07:00,
2013-05-09 23:08:00,56.3,54.6,29.93,SSE,151,3.0,9.0,94,0.00,,OVC018,0.23,VWS V14.01,2013-05-10 03:08:00,
2013-05-09 23:09:00,56.3,54.6,29.93,SSE,151,0.0,9.0,94,0.00,,OVC018,0.23,VWS V14.01,2013-05-10 03:09:00,
2013-05-09 23:10:00,56.5,54.8,29.93,SSE,158,0.0,0.0,94,0.00,,BKN120,0.23,VWS V14.01,2013-05-10 03:10:00,
2013-05-09 23:15:00,56.6,54.9,29.94,SSE,151,3.0,6.0,94,0.00,,BKN120,0.23,VWS V14.01,2013-05-10 03:15:00,
2013-05-09 23:20:00,56.8,55.1,29.94,SE,143,12.0,12.0,94,0.00,,BKN120,0.23,VWS V14.01,2013-05-10 03:20:00,
2013-05-09 23:25:00,56.8,55.1,29.94,SE,140,10.5,13.5,94,0.00,,BKN120,0.23,VWS V14.01,2013-05-10 03:25:00,
2013-05-09 23:30:00,56.6,54.9,29.93,SE,136,6.0,13.5,94,0.00,,BKN120,0.23,VWS V14.01,2013-05-10 03:30:00,
2013-05-09 23:35:00,56.6,54.9,29.93,SE,137,6.0,13.5,94,0.00,,BKN120,0.23,VWS V14.01,2013-05-10 03:35:00,
2013-05-09 23:40:00,56.6,54.9,29.93,SE,136,3.0,13.5,94,0.00,,BKN120,0.23,VWS V14.01,2013-05-10 03:40:00,
2013-05-09 23:45:00,56.5,54.8,29.93,SE,137,0.0,13.5,94,0.00,,BKN120,0.23,VWS V14.01,2013-05-10 03:45:00,
2013-05-09 23:50:00,56.5,54.8,29.93,SE,137,0.0,10.5,94,0.00,,BKN120,0.23,VWS V14.01,2013-05-10 03:50:00,
2013-05-09 23:55:00,56.5,54.8,29.93,SE,136,0.0,9.0,94,0.00,,BKN120,0.23,VWS V14.01,2013-05-10 03:55:00,